SCP
0 0 0 0 0 0 0 0 0 0 0 0 0 0 0 0 0 0 0 0 0 0 0 0 0 0 0 0 0 0 0 0 0 0 0 0 0 0 0 0 0 0 0
0 0 0 0 0 0 0 0 0 0 0 0 0 0 0 0 0 0 0 0 0 0 0 0 0 0 0 0 0 0 0 0 0 0 0 0 0 0 0 0 0 0 0
0 0 0 0 0 0 0 0 0 0 0 0 0 0 0 0 0 0 0 0 0 0 0 0 0 0 0 0 0 0 0 0 0 0 0 0 0 0 0 0 0 0 0
0 0 0 0 0 0 0 0 0 0 0 0 0 0 0 0 0 0 0 0 0 0 0 0 0 0 0 0 0 0 0 0 0 0 0 0 0 0 0 0 0 0 0
-0 0 0 0 0 0 0 0 0 0 0 0 0 0 0 0 0 0 0 0 0 0 0 0 0 0 0 0 0 0 0 0 0 0 0 0 0 0 0 0 0 0 0
-0 -0 0 0 0 0 0 0 0 0 0 0 0 0 0 0 0 0 0 0 0 0 0 0 0 0 0 0 0 0 0 0 0 0 0 0 0 0 0 0 0 0 0
-0 -0 -0 0 0 0 0 0 0 0 0 0 0 0 0 0 0 0 0 0 0 0 0 0 0 0 0 0 0 0 0 0 0 0 0 0 0 0 0 0 0 0 0
-0 -0 -0 -0 -0 0 0 0 0 0 0 0 0 0 0 0 0 0 0 0 0 0 0 0 0 0 0 0 0 0 0 0 0 0 0 0 0 0 0 0 0 0 0
-0 -0 -0 -0 -0 -0 -0 0 0 0 0 0 0 0 0 0 0 0 0 0 0 0 0 0 0 0 0 0 0 0 0 0 0 0 0 0 0 0 0 0 0 0 0
-0 -0 -0 -0 -0 -0 -0 -0 -0 0 0 0 0 0 0 0 0 0 0 0 0 0 0 0 0 0 0 0 0 0 0 0 0 0 0 0 0 0 0 0 0 0 0
0 -0 -0 -0 -0 -0 -0 -0 -0 -0 -0 0 0 0 0 0 0 0 0 0 0 0 0 0 0 0 0 0 0 0 0 0 0 0 0 0 0 0 0 0 0 0 0
0 0 -0 -0 -0 -0 -0 -0 -0 -0 -0 -0 0 0 0 0 0 0 0 0 0 0 0 0 0 0 0 0 0 0 0 0 0 0 0 0 0 0 0 0 0 0 0
0 0 -0 -0 -0 -0 -0 -0 -0 -0 -0 -0 -0 -0 0 0 0 0 0 0 0 0 0 0 0 0 0 0 0 0 0 0 0 0 0 0 0 0 0 0 0 0 0
0 -0 -0 -0 -0 -0 -0 -0 -0 -0 -0 -0 -0 -0 -0 -0 0 0 0 0 0 0 0 0 0 0 0 0 0 0 0 0 0 0 0 0 0 0 0 0 0 0 0
0 -0 -0 -0 -0 -0 -0 -0 -0 -0 -0 -0 -0 -0 -0 0 0 0 0 0 0 0 0 0 0 0 0 0 0 0 0 0 0 0 0 0 0 0 0 0 0 0 0
0 0 0 -0 -0 -0 -0 -0 0 0 0 0 0 0 0 0 0 0 0 0 0 0 0 0 0 0 0 0 0 0 0 0 0 0 0 0 0 0 0 0 0 0 0
0 0 0 0 0 0 0 0 0 0 0 0 0 0 0 0 0 0 0 0 0 0 0 0 0 0 0 0 0 0 0 0 0 0 0 0 0 0 0 0 0 0 0
0 0 0 0 0 0 0 0 0 0 0 0 0 0 0 0 0 0 0 0 0 0 0 0 0 0 0 0 0 0 0 0 0 0 0 0 0 0 0 0 0 0 0
0 0 0 0 0 0 0 0 0 0 0 0 0 0 0 0 0 0 0 0 0 0 0 0 0 0 0 0 0 0 0 0 0 0 0 0 0 0 0 0 0 0 0
0 0 0 0 0 0 0 0 0 0 0 0 0 0 0 0 0 0 0 0 0 0 0 0 0 0 0 0 0 0 0 0 0 0 0 0 0 0 0 0 0 0 0
0 0 0 0 0 0 0 0 0 0 0 0 0 0 0 0 0 0 0 0 0 0 0 0 0 0 0 0 0 0 0 0 0 0 0 0 0 0 0 0 0 0 0
0 0 0 0 0 0 0 0 0 0 0 0 0 0 0 0 0 0 0 0 0 0 0 0 0 0 0 0 0 0 0 0 0 0 0 0 0 0 0 0 0 0 0
0 0 0 0 0 0 0 0 0 0 0 0 0 0 0 0 0 0 0 0 0 0 0 0 0 0 0 0 0 0 0 0 0 0 0 0 0 0 0 0 0 0 0
0 0 0 0 0 0 0 0 0 0 0 0 0 0 0 0 0 0 0 0 0 0 0 0 0 0 0 0 0 0 0 0 0 0 0 0 0 0 0 0 0 0 0
0 0 0 0 0 0 0 0 0 0 0 0 0 0 0 0 0 0 0 0 0 0 0 0 0 0 0 0 0 0 0 0 0 0 0 0 0 0 0 0 0 0 0
0 0 0 0 0 0 0 0 0 0 0 0 0 0 0 0 0 0 0 0 0 0 0 0 0 0 0 0 0 0 0 0 0 0 0 0 0 0 0 0 0 0 0
Wind_Speed_500mb
69 59 54 49 41 34 26 11 8 28 33 39 40 41 45 49 55 68 77 78 80 81 81 86 90 82 82 83 81 78 74 66 60 53 45 38 42 41 49 48 42 40 40
76 71 66 54 47 43 37 28 15 3 14 25 25 27 31 35 38 46 54 56 60 66 69 72 75 76 82 81 81 80 75 68 63 55 53 48 46 46 44 44 42 42 40
71 74 72 73 62 55 49 39 25 10 1 12 21 22 22 24 29 33 38 41 46 53 58 63 67 73 79 80 79 81 77 70 64 61 56 52 51 49 48 45 43 42 39
69 70 72 75 74 68 56 49 41 26 9 2 12 20 24 25 27 30 34 37 40 44 49 54 62 68 73 76 76 80 78 76 69 66 60 56 55 55 51 48 46 42 38
67 70 70 69 69 68 68 60 49 42 33 16 3 10 17 25 31 35 37 38 41 43 45 49 56 61 63 70 74 78 82 81 75 73 68 64 62 61 58 52 46 44 39
50 59 66 71 69 67 68 67 60 54 48 36 23 5 8 19 28 34 38 42 43 44 45 46 49 54 59 65 68 72 78 84 83 79 76 73 66 57 53 52 48 46 39
47 46 49 54 61 70 69 63 64 63 54 50 42 31 19 4 17 29 34 36 39 43 44 46 47 49 55 62 66 72 73 76 77 72 75 71 65 55 55 50 49 44 40
44 45 46 46 47 49 54 63 64 59 58 55 49 42 33 27 12 13 24 27 31 35 39 42 46 46 49 56 60 69 74 74 76 74 66 56 52 52 49 47 43 42 39
44 44 45 46 47 44 45 46 47 52 57 53 51 48 43 35 28 15 3 16 19 24 31 36 40 44 45 50 58 63 66 70 71 70 63 58 57 56 56 54 50 43 38
44 46 48 46 46 45 43 42 42 40 38 42 50 48 45 39 32 27 21 4 9 14 22 28 32 37 42 49 58 64 64 67 72 74 73 69 65 61 57 53 45 43 37
42 48 52 54 52 48 44 43 40 38 37 34 30 35 45 42 34 32 28 25 16 1 8 16 25 30 36 43 51 61 66 59 66 72 75 74 70 67 61 54 48 44 39
48 48 51 55 60 60 55 50 44 41 38 36 35 27 25 31 42 31 28 24 21 18 11 7 18 25 33 38 44 50 54 61 65 72 75 77 74 68 60 55 49 46 41
60 60 60 58 57 60 65 59 53 44 41 37 36 38 33 27 23 30 34 26 22 22 19 16 15 19 25 32 39 43 54 64 69 71 76 76 72 65 63 57 52 49 42
61 67 68 66 62 57 55 58 56 48 41 38 38 39 40 37 32 27 24 28 31 23 21 15 14 19 21 24 32 43 51 57 63 68 69 72 72 70 68 59 57 49 45
68 67 65 64 59 55 50 49 50 47 40 38 38 41 44 42 37 36 36 30 28 26 31 23 16 8 8 16 23 37 45 49 53 58 65 69 73 74 71 65 59 53 52
64 61 57 54 54 50 48 45 39 40 40 35 33 35 39 42 44 40 38 37 33 29 23 26 24 13 9 5 15 22 35 43 49 53 58 64 70 75 73 70 65 58 53
52 50 47 44 42 42 40 42 46 34 37 34 32 34 36 38 39 40 41 40 39 37 31 26 23 24 16 9 5 15 25 31 38 46 53 59 63 65 66 71 66 60 57
41 40 40 39 37 38 39 40 40 45 45 39 31 31 29 34 37 37 41 44 43 38 37 35 32 30 24 23 10 8 13 24 31 36 45 53 57 61 63 68 65 64 62
34 33 34 36 36 37 39 40 40 40 42 44 40 29 32 33 32 33 34 36 40 42 42 41 40 38 36 33 29 16 14 15 24 32 37 43 52 58 62 63 63 66 65
31 32 34 36 38 39 40 42 44 45 46 45 43 42 41 43 36 26 26 30 36 43 46 47 46 47 44 42 39 34 25 19 17 24 32 39 43 48 57 62 65 69 70
35 37 38 38 38 40 42 43 44 46 49 49 46 43 45 47 48 43 36 32 32 35 42 48 51 50 51 49 47 45 40 32 25 21 26 33 38 45 48 53 63 66 68
38 36 35 37 38 39 40 43 46 47 48 50 48 45 44 45 47 48 44 38 34 35 37 42 49 51 51 53 53 52 49 43 36 32 30 27 34 39 45 48 55 65 69
33 36 38 40 41 42 43 44 46 48 50 50 50 49 48 48 47 46 45 44 40 35 36 41 45 48 48 50 54 57 57 55 49 44 41 37 31 36 41 48 56 62 67
38 41 43 43 45 47 48 49 50 50 51 53 55 54 54 53 52 50 48 48 48 44 38 40 42 44 47 49 53 57 61 61 60 55 49 47 45 36 37 45 52 57 63
37 40 43 45 47 49 52 53 54 54 55 56 58 61 61 59 56 53 52 51 51 50 47 44 43 43 44 48 52 55 59 67 70 69 60 54 53 52 44 42 48 53 58
40 43 46 47 48 50 52 55 57 58 59 60 63 64 64 61 56 54 51 51 53 53 52 51 47 44 45 47 50 53 56 62 71 74 74 65 57 56 56 49 45 50 54
Wind_Direction_500mb
15 11 17 13 10 14 14 356 237 218 218 226 235 241 243 241 239 240 241 240 238 241 239 235 234 230 231 230 232 233 234 235 240 240 242 242 236 232 232 231 230 237 248
21 20 19 24 19 19 23 18 21 297 212 215 227 235 239 239 238 240 242 243 243 244 243 241 237 230 233 230 230 231 232 232 234 234 234 233 232 230 226 224 226 236 249
21 23 23 27 27 24 22 24 26 32 263 218 221 220 228 231 232 235 238 240 244 248 249 246 241 235 234 231 227 230 230 230 230 232 229 229 230 227 221 219 226 239 248
19 22 25 27 29 29 27 28 31 25 14 236 231 228 224 222 226 228 234 234 238 241 243 245 244 241 237 234 230 230 229 227 226 226 225 229 227 223 220 224 230 237 247
10 15 19 24 27 30 31 31 33 36 36 23 293 224 230 233 231 228 230 232 235 237 238 240 241 240 238 236 235 231 227 225 223 223 222 223 223 220 223 227 228 236 245
8 11 12 11 19 24 29 29 31 36 40 42 43 21 233 236 239 236 237 235 232 235 236 236 238 238 235 233 232 233 234 228 223 222 222 223 226 223 224 225 225 231 241
359 7 9 12 12 11 14 23 27 30 31 38 39 42 37 308 253 242 238 238 238 238 237 236 235 233 231 228 227 230 229 230 234 235 229 228 226 224 224 223 227 231 239
348 354 0 6 10 12 11 6 12 20 25 24 27 25 23 24 1 278 247 240 239 236 239 236 234 232 229 226 226 230 225 222 223 227 231 233 231 227 222 227 230 232 237
335 342 349 354 358 4 6 6 6 5 7 13 15 17 18 16 17 12 309 225 230 236 229 231 232 231 227 223 223 228 227 222 218 219 222 218 216 215 217 222 223 227 235
326 332 337 341 345 348 353 355 354 356 0 360 358 1 6 14 21 18 23 40 212 228 237 234 232 231 227 223 220 223 226 221 215 212 212 213 213 215 216 221 222 228 233
318 320 324 329 332 334 336 337 338 340 343 345 350 349 347 353 8 18 21 19 30 17 226 229 234 236 229 225 224 220 222 220 218 217 214 214 214 215 216 218 220 225 229
312 316 317 319 323 325 326 325 326 326 325 325 327 330 337 338 340 356 7 12 2 355 348 266 242 243 247 230 224 220 215 216 217 218 215 213 215 215 215 216 217 224 227
310 312 315 317 316 315 317 319 319 319 315 313 311 310 313 318 324 327 336 345 352 349 340 324 284 251 249 242 226 214 210 212 213 215 216 215 216 216 217 214 214 219 221
307 310 312 313 314 313 311 311 314 315 312 307 304 300 297 302 308 306 307 316 325 334 339 333 309 269 251 241 227 214 214 214 216 215 214 214 214 213 214 214 214 216 220
306 309 310 312 314 314 313 312 311 313 312 312 305 299 297 293 295 296 302 305 302 312 325 332 334 312 255 242 228 220 218 216 215 213 215 214 213 215 216 213 211 214 219
306 309 311 312 314 317 317 313 311 310 308 304 298 293 287 283 285 290 292 292 293 288 292 304 314 323 351 292 242 233 223 219 218 215 214 216 217 216 214 213 212 216 220
308 310 313 316 316 319 321 320 318 313 315 316 309 303 297 288 287 281 284 283 279 277 272 264 267 288 297 328 288 253 238 230 225 221 218 217 218 219 218 215 214 217 216
309 310 312 316 317 317 319 320 321 320 321 321 321 320 307 296 292 282 278 277 273 268 264 258 252 244 254 269 283 250 257 238 230 225 223 222 221 221 218 217 217 219 218
309 312 313 314 317 318 319 318 319 320 320 323 324 323 315 304 298 296 288 280 272 265 258 253 251 245 239 233 251 255 239 251 243 234 225 224 224 223 222 221 220 222 221
311 315 316 314 315 314 314 314 316 317 317 319 320 324 319 314 310 303 291 281 272 269 266 260 253 248 241 236 231 234 244 230 243 246 236 227 224 226 225 223 222 223 222
311 313 312 312 313 312 314 314 316 316 316 316 316 315 311 310 311 315 312 302 290 276 270 268 262 254 248 241 235 232 225 232 231 236 249 238 227 224 225 226 226 226 224
310 313 314 315 315 315 315 316 317 316 316 315 315 311 308 304 303 303 302 300 294 286 278 271 267 262 253 247 242 235 229 220 219 228 227 244 236 228 224 223 226 226 223
311 312 313 314 314 315 315 316 316 317 318 317 317 314 311 307 304 300 297 296 291 285 279 274 270 267 261 253 246 241 233 225 216 212 221 218 236 233 227 224 224 222 220
311 311 311 311 312 313 314 314 315 316 318 319 319 318 312 306 302 299 297 295 292 287 278 272 271 268 264 258 251 244 238 230 224 216 209 215 215 226 230 228 227 225 222
309 308 308 310 312 312 311 310 309 311 312 315 316 316 314 308 300 294 293 293 291 289 284 278 271 267 264 260 256 249 241 234 228 223 217 211 214 215 219 229 227 226 224
309 309 309 311 311 311 310 309 309 310 311 312 313 314 312 307 300 293 288 285 286 287 284 280 276 268 259 256 254 254 248 239 233 227 224 220 215 214 215 219 225 226 226
Wind_Speed_850mb
69 59 54 49 41 34 26 11 8 28 33 39 40 41 45 49 55 68 77 78 80 81 81 86 90 82 82 83 81 78 74 66 60 53 45 38 42 41 49 48 42 40 40
76 71 66 54 47 43 37 28 15 3 14 25 25 27 31 35 38 46 54 56 60 66 69 72 75 76 82 81 81 80 75 68 63 55 53 48 46 46 44 44 42 42 40
71 74 72 73 62 55 49 39 25 10 1 12 21 22 22 24 29 33 38 41 46 53 58 63 67 73 79 80 79 81 77 70 64 61 56 52 51 49 48 45 43 42 39
69 70 72 75 74 68 56 49 41 26 9 2 12 20 24 25 27 30 34 37 40 44 49 54 62 68 73 76 76 80 78 76 69 66 60 56 55 55 51 48 46 42 38
67 70 70 69 69 68 68 60 49 42 33 16 3 10 17 25 31 35 37 38 41 43 45 49 56 61 63 70 74 78 82 81 75 73 68 64 62 61 58 52 46 44 39
50 59 66 71 69 67 68 67 60 54 48 36 23 5 8 19 28 34 38 42 43 44 45 46 49 54 59 65 68 72 78 84 83 79 76 73 66 57 53 52 48 46 39
47 46 49 54 61 70 69 63 64 63 54 50 42 31 19 4 17 29 34 36 39 43 44 46 47 49 55 62 66 72 73 76 77 72 75 71 65 55 55 50 49 44 40
44 45 46 46 47 49 54 63 64 59 58 55 49 42 33 27 12 13 24 27 31 35 39 42 46 46 49 56 60 69 74 74 76 74 66 56 52 52 49 47 43 42 39
44 44 45 46 47 44 45 46 47 52 57 53 51 48 43 35 28 15 3 16 19 24 31 36 40 44 45 50 58 63 66 70 71 70 63 58 57 56 56 54 50 43 38
44 46 48 46 46 45 43 42 42 40 38 42 50 48 45 39 32 27 21 4 9 14 22 28 32 37 42 49 58 64 64 67 72 74 73 69 65 61 57 53 45 43 37
42 48 52 54 52 48 44 43 40 38 37 34 30 35 45 42 34 32 28 25 16 1 8 16 25 30 36 43 51 61 66 59 66 72 75 74 70 67 61 54 48 44 39
48 48 51 55 60 60 55 50 44 41 38 36 35 27 25 31 42 31 28 24 21 18 11 7 18 25 33 38 44 50 54 61 65 72 75 77 74 68 60 55 49 46 41
60 60 60 58 57 60 65 59 53 44 41 37 36 38 33 27 23 30 34 26 22 22 19 16 15 19 25 32 39 43 54 64 69 71 76 76 72 65 63 57 52 49 42
61 67 68 66 62 57 55 58 56 48 41 38 38 39 40 37 32 27 24 28 31 23 21 15 14 19 21 24 32 43 51 57 63 68 69 72 72 70 68 59 57 49 45
68 67 65 64 59 55 50 49 50 47 40 38 38 41 44 42 37 36 36 30 28 26 31 23 16 8 8 16 23 37 45 49 53 58 65 69 73 74 71 65 59 53 52
64 61 57 54 54 50 48 45 39 40 40 35 33 35 39 42 44 40 38 37 33 29 23 26 24 13 9 5 15 22 35 43 49 53 58 64 70 75 73 70 65 58 53
52 50 47 44 42 42 40 42 46 34 37 34 32 34 36 38 39 40 41 40 39 37 31 26 23 24 16 9 5 15 25 31 38 46 53 59 63 65 66 71 66 60 57
41 40 40 39 37 38 39 40 40 45 45 39 31 31 29 34 37 37 41 44 43 38 37 35 32 30 24 23 10 8 13 24 31 36 45 53 57 61 63 68 65 64 62
34 33 34 36 36 37 39 40 40 40 42 44 40 29 32 33 32 33 34 36 40 42 42 41 40 38 36 33 29 16 14 15 24 32 37 43 52 58 62 63 63 66 65
31 32 34 36 38 39 40 42 44 45 46 45 43 42 41 43 36 26 26 30 36 43 46 47 46 47 44 42 39 34 25 19 17 24 32 39 43 48 57 62 65 69 70
35 37 38 38 38 40 42 43 44 46 49 49 46 43 45 47 48 43 36 32 32 35 42 48 51 50 51 49 47 45 40 32 25 21 26 33 38 45 48 53 63 66 68
38 36 35 37 38 39 40 43 46 47 48 50 48 45 44 45 47 48 44 38 34 35 37 42 49 51 51 53 53 52 49 43 36 32 30 27 34 39 45 48 55 65 69
33 36 38 40 41 42 43 44 46 48 50 50 50 49 48 48 47 46 45 44 40 35 36 41 45 48 48 50 54 57 57 55 49 44 41 37 31 36 41 48 56 62 67
38 41 43 43 45 47 48 49 50 50 51 53 55 54 54 53 52 50 48 48 48 44 38 40 42 44 47 49 53 57 61 61 60 55 49 47 45 36 37 45 52 57 63
37 40 43 45 47 49 52 53 54 54 55 56 58 61 61 59 56 53 52 51 51 50 47 44 43 43 44 48 52 55 59 67 70 69 60 54 53 52 44 42 48 53 58
40 43 46 47 48 50 52 55 57 58 59 60 63 64 64 61 56 54 51 51 53 53 52 51 47 44 45 47 50 53 56 62 71 74 74 65 57 56 56 49 45 50 54
Wind_Direction_850mb
15 11 17 13 10 14 14 356 237 218 218 226 235 241 243 241 239 240 241 240 238 241 239 235 234 230 231 230 232 233 234 235 240 240 242 242 236 232 232 231 230 237 248
21 20 19 24 19 19 23 18 21 297 212 215 227 235 239 239 238 240 242 243 243 244 243 241 237 230 233 230 230 231 232 232 234 234 234 233 232 230 226 224 226 236 249
21 23 23 27 27 24 22 24 26 32 263 218 221 220 228 231 232 235 238 240 244 248 249 246 241 235 234 231 227 230 230 230 230 232 229 229 230 227 221 219 226 239 248
19 22 25 27 29 29 27 28 31 25 14 236 231 228 224 222 226 228 234 234 238 241 243 245 244 241 237 234 230 230 229 227 226 226 225 229 227 223 220 224 230 237 247
10 15 19 24 27 30 31 31 33 36 36 23 293 224 230 233 231 228 230 232 235 237 238 240 241 240 238 236 235 231 227 225 223 223 222 223 223 220 223 227 228 236 245
8 11 12 11 19 24 29 29 31 36 40 42 43 21 233 236 239 236 237 235 232 235 236 236 238 238 235 233 232 233 234 228 223 222 222 223 226 223 224 225 225 231 241
359 7 9 12 12 11 14 23 27 30 31 38 39 42 37 308 253 242 238 238 238 238 237 236 235 233 231 228 227 230 229 230 234 235 229 228 226 224 224 223 227 231 239
348 354 0 6 10 12 11 6 12 20 25 24 27 25 23 24 1 278 247 240 239 236 239 236 234 232 229 226 226 230 225 222 223 227 231 233 231 227 222 227 230 232 237
335 342 349 354 358 4 6 6 6 5 7 13 15 17 18 16 17 12 309 225 230 236 229 231 232 231 227 223 223 228 227 222 218 219 222 218 216 215 217 222 223 227 235
326 332 337 341 345 348 353 355 354 356 0 360 358 1 6 14 21 18 23 40 212 228 237 234 232 231 227 223 220 223 226 221 215 212 212 213 213 215 216 221 222 228 233
318 320 324 329 332 334 336 337 338 340 343 345 350 349 347 353 8 18 21 19 30 17 226 229 234 236 229 225 224 220 222 220 218 217 214 214 214 215 216 218 220 225 229
312 316 317 319 323 325 326 325 326 326 325 325 327 330 337 338 340 356 7 12 2 355 348 266 242 243 247 230 224 220 215 216 217 218 215 213 215 215 215 216 217 224 227
310 312 315 317 316 315 317 319 319 319 315 313 311 310 313 318 324 327 336 345 352 349 340 324 284 251 249 242 226 214 210 212 213 215 216 215 216 216 217 214 214 219 221
307 310 312 313 314 313 311 311 314 315 312 307 304 300 297 302 308 306 307 316 325 334 339 333 309 269 251 241 227 214 214 214 216 215 214 214 214 213 214 214 214 216 220
306 309 310 312 314 314 313 312 311 313 312 312 305 299 297 293 295 296 302 305 302 312 325 332 334 312 255 242 228 220 218 216 215 213 215 214 213 215 216 213 211 214 219
306 309 311 312 314 317 317 313 311 310 308 304 298 293 287 283 285 290 292 292 293 288 292 304 314 323 351 292 242 233 223 219 218 215 214 216 217 216 214 213 212 216 220
308 310 313 316 316 319 321 320 318 313 315 316 309 303 297 288 287 281 284 283 279 277 272 264 267 288 297 328 288 253 238 230 225 221 218 217 218 219 218 215 214 217 216
309 310 312 316 317 317 319 320 321 320 321 321 321 320 307 296 292 282 278 277 273 268 264 258 252 244 254 269 283 250 257 238 230 225 223 222 221 221 218 217 217 219 218
309 312 313 314 317 318 319 318 319 320 320 323 324 323 315 304 298 296 288 280 272 265 258 253 251 245 239 233 251 255 239 251 243 234 225 224 224 223 222 221 220 222 221
311 315 316 314 315 314 314 314 316 317 317 319 320 324 319 314 310 303 291 281 272 269 266 260 253 248 241 236 231 234 244 230 243 246 236 227 224 226 225 223 222 223 222
311 313 312 312 313 312 314 314 316 316 316 316 316 315 311 310 311 315 312 302 290 276 270 268 262 254 248 241 235 232 225 232 231 236 249 238 227 224 225 226 226 226 224
310 313 314 315 315 315 315 316 317 316 316 315 315 311 308 304 303 303 302 300 294 286 278 271 267 262 253 247 242 235 229 220 219 228 227 244 236 228 224 223 226 226 223
311 312 313 314 314 315 315 316 316 317 318 317 317 314 311 307 304 300 297 296 291 285 279 274 270 267 261 253 246 241 233 225 216 212 221 218 236 233 227 224 224 222 220
311 311 311 311 312 313 314 314 315 316 318 319 319 318 312 306 302 299 297 295 292 287 278 272 271 268 264 258 251 244 238 230 224 216 209 215 215 226 230 228 227 225 222
309 308 308 310 312 312 311 310 309 311 312 315 316 316 314 308 300 294 293 293 291 289 284 278 271 267 264 260 256 249 241 234 228 223 217 211 214 215 219 229 227 226 224
309 309 309 311 311 311 310 309 309 310 311 312 313 314 312 307 300 293 288 285 286 287 284 280 276 268 259 256 254 254 248 239 233 227 224 220 215 214 215 219 225 226 226